Home > Weather > Leonding > Past weeks

Flag for Austria Past Weather in Leonding, Upper Austria, Austria — Yesterday and Last 2 Weeks

Now
73 °F

Mild.


Feels Like: 76 °F
Forecast: 58 / 85 °F
Wind: 6 mph from East

Location: Linz / Hoersching-Flughafen

Current Time: Aug 27, 2016 at 10:53:00 PM

Latest Report: Aug 27, 2016 at 9:50 PM


Visibility: N/A

Pressure: 30.07 "Hg

Humidity: 69%

Dew Point: 63 °F

Location of LeondingLocation

Past Weather in Leonding — Graph

°F

Leonding Temperature Yesterday

Maximum temperature yesterday: 84 °F (at 5:20 PM)
Minimum temperature yesterday: 57 °F (at 5:50 AM)
Average temperature yesterday: 70 °F

High & Low Weather Summary for the Past Weeks

 TemperatureHumidityPressure
High86 °F (Aug 27, 3:20 PM)100% (Aug 14, 3:20 AM)30.42 "Hg (Aug 14, 3:20 AM)
Low52 °F (Aug 23, 5:50 AM)30% (Aug 20, 5:20 PM)29.80 "Hg (Aug 18, 4:20 PM)
Average67 °F72%30.12 "Hg
* Reported Aug 12 9:20 PM — Aug 27 9:20 PM, Leonding, Weather by CustomWeather, © 2016

Note: Actual official high and low records may vary slightly from our data, if they occured in-between our weather recording intervals... More about our weather records

Advertising

Leonding Weather History for the Previous 24 Hours

Scroll right to see more
 ConditionsComfort  
Time TempWeatherWind HumidityBarometerVisibility
9:20 PM
Sat, Aug 27
73 °FMild.5 mph69%30.07 "HgN/A
8:50 PM75 °FMild.3 mph69%30.07 "HgN/A
8:20 PM75 °FMild.6 mph65%30.07 "HgN/A
7:50 PM77 °FSunny.5 mph65%30.07 "Hg10 mi
7:20 PM81 °FSunny.5 mph54%30.07 "Hg10 mi
6:50 PM82 °FSunny.7 mph48%30.07 "Hg10 mi
6:20 PM84 °FPassing clouds.8 mph45%30.07 "HgN/A
5:50 PM84 °FPassing clouds.7 mph43%30.07 "HgN/A
5:20 PM86 °FPassing clouds.9 mph43%30.07 "HgN/A
4:50 PM86 °FPassing clouds.8 mph46%30.07 "HgN/A
4:20 PM86 °FPassing clouds.7 mph38%30.07 "HgN/A
3:50 PM86 °FPassing clouds.7 mph38%30.09 "HgN/A
3:20 PM86 °FPassing clouds.7 mph35%30.09 "HgN/A
2:50 PM84 °FPassing clouds.7 mph40%30.09 "HgN/A
2:20 PM84 °FPassing clouds.6 mph43%30.09 "HgN/A
1:50 PM82 °FPassing clouds.6 mph48%30.12 "HgN/A
1:20 PM82 °FPassing clouds.6 mph51%30.12 "HgN/A
12:50 PM79 °FPassing clouds.6 mph54%30.12 "HgN/A
12:20 PM77 °FPassing clouds.3 mph57%30.12 "HgN/A
11:50 AM75 °FSunny.5 mph61%30.15 "Hg10 mi
11:20 AM75 °FPassing clouds.6 mph61%30.15 "HgN/A
10:50 AM73 °FPassing clouds.5 mph61%30.15 "HgN/A
10:20 AM72 °FPassing clouds.7 mph61%30.15 "HgN/A
9:50 AM70 °FPassing clouds.8 mph64%30.15 "HgN/A
9:20 AM68 °FPassing clouds.6 mph69%30.15 "HgN/A
8:50 AM66 °FSunny.7 mph73%30.15 "Hg10 mi
8:20 AM64 °FPassing clouds.3 mph78%30.15 "HgN/A
7:50 AM63 °FSunny.2 mph83%30.15 "Hg10 mi
7:20 AM59 °FSunny.1 mph94%30.15 "Hg10 mi
6:50 AM57 °FFog.1 mph94%30.15 "HgN/A
5:50 AM57 °FClear.1 mph94%30.15 "HgN/A
5:20 AM57 °FClear.1 mph94%30.15 "Hg10 mi
4:50 AM59 °FClear.1 mph94%30.15 "Hg10 mi
4:20 AM59 °FClear.2 mph94%30.15 "Hg10 mi
3:50 AM59 °FClear.2 mph94%30.15 "Hg10 mi
3:20 AM61 °FCool.2 mph88%30.15 "HgN/A
2:50 AM61 °FCool.2 mph88%30.12 "HgN/A
2:20 AM61 °FCool.2 mph88%30.12 "HgN/A
1:50 AM61 °FCool.3 mph88%30.12 "HgN/A
1:20 AM63 °FMild.2 mph83%30.12 "HgN/A
12:50 AM63 °FMild.2 mph83%30.12 "HgN/A
12:20 AM64 °FMild.2 mph83%30.12 "HgN/A
11:50 PM
Fri, Aug 26
64 °FMild.3 mph83%30.12 "HgN/A
11:20 PM66 °FMild.3 mph78%30.12 "HgN/A
10:50 PM68 °FMild.2 mph73%30.12 "HgN/A
10:20 PM70 °FPassing clouds.5 mph69%30.12 "HgN/A
Weather by CustomWeather, © 2016

See weather overviewHow to use our weather pages